Regional Weather Roundup
Issued by NWS

Home | Current Version | Previous Version | Text Only | Print | Product List | Glossary Off
Versions: 1 2 3 4 5 6 7 8 9 10 11 12 13 14 15 16 17 18 19 20 21 22 23 24 25 26 27 28 29 30 31 32 33 34 35 36 37 38 39 40 41 42 43 44 45 46 47 48 49 50

000
ASUS43 KIND 281459
RWRIN

WEATHER ROUNDUP FOR INDIANA
NATIONAL WEATHER SERVICE INDIANAPOLIS IN
1000 AM EST WED JAN 28 2015

NOTE: "FAIR" INDICATES FEW OR NO CLOUDS BELOW 12,000 FEET WITH NO
SIGNIFICANT WEATHER AND/OR OBSTRUCTIONS TO VISIBILITY.

* - STATION DOES NOT REPORT WEATHER SUCH AS PRECIPITATION OR FOG.

+ - STATION NOT QUALITY CONTROLLED BY THE NATIONAL WEATHER SERVICE.
    USE DATA WITH CAUTION...ESPECIALLY DEWPOINT AND RELATIVE
    HUMIDITY OBSERVATIONS.

INZ001>003-010>013-019-020-281600-
NORTHWEST INDIANA

CITY           SKY/WX    TMP DP  RH WIND       PRES   REMARKS
GARY /AIRPORT/ MOSUNNY   27  10  50 SE12      30.30F WCI  16
VALPARAISO     NOT AVBL

$$

LMZ046-743>745-281600-
SOUTHERN LAKE MICHIGAN

STATION/POSITION TIME  TEMP WIND        PRES
                       AIR  DIR/SP/G
                 (UTC) (F)  (DEG/KT/KT) (MB)
MICHIGAN CITY    1400   22  140/  8/ 10   N/A

$$

INZ004-005-014>016-021>024-281600-
NORTH CENTRAL INDIANA

CITY           SKY/WX    TMP DP  RH WIND       PRES   REMARKS
ELKHART        SUNNY     21  10  63 SE7       30.32F WCI  13
GOSHEN         MOSUNNY   21  13  71 SE7       30.32F WCI  12
SOUTH BEND     MOSUNNY   24  12  60 SE12      30.31F WCI  13

$$

INZ006>009-017-018-025>027-281600-
NORTHEAST INDIANA

CITY           SKY/WX    TMP DP  RH WIND       PRES   REMARKS
ANGOLA *+      SUNNY     16  10  79 CALM      30.32F
FORT WAYNE     MOSUNNY   16  12  84 SE3       30.36R

$$

INZ028-029-035-036-043>045-051>053-281600-
WEST CENTRAL INDIANA

CITY           SKY/WX    TMP DP  RH WIND       PRES   REMARKS
CRAWFORDSVL +  MOSUNNY   24  13  62 SE12      30.31F WCI  13
GREENCASTLE +  SUNNY     27  16  63 S7        30.31F WCI  19
LAFAYETTE      MOSUNNY   25  18  74 SE5       30.32S WCI  19
TERRE HAUTE    SUNNY     25  17  72 S10       30.33S WCI  15

$$

INZ030>032-037>040-046>048-054>057-064-065-281600-
CENTRAL INDIANA

CITY           SKY/WX    TMP DP  RH WIND       PRES   REMARKS
ANDERSON       SUNNY     21  16  79 N7        30.35S WCI  13
INDIANAPOLIS   MOSUNNY   22  16  78 S10       30.33F WCI  11
-EAGLE CREEK   SUNNY     24  15  68 SE8       30.32F WCI  15
KOKOMO *+      MOSUNNY   19  16  86 SE9       30.33S WCI   9
MT COMFORT *+  MOSUNNY   25  10  54 SE9       30.33F WCI  15
SHELBYVILLE    MOSUNNY   25  17  72 SE9       30.35S WCI  15

$$

INZ033-034-041-042-049-050-058-059-281600-
EAST CENTRAL INDIANA

CITY           SKY/WX    TMP DP  RH WIND       PRES   REMARKS
MUNCIE         MOSUNNY   19  13  77 SE7       30.33F HAZE    WCI  10

$$

INZ060-061-067>069-081>083-085>088-281600-
SOUTHWEST INDIANA

CITY           SKY/WX    TMP DP  RH WIND       PRES   REMARKS
EVANSVILLE     SUNNY     31  21  66 SE7       30.36R WCI  24
HUNTINGBURG *+ SUNNY     27  16  63 SE10      30.35S WCI  17

$$

INZ062-063-066-070>080-084-089>092-281600-
SOUTH CENTRAL AND SOUTHEAST INDIANA

CITY           SKY/WX    TMP DP  RH WIND       PRES   REMARKS
BLOOMINGTON    SUNNY     24  17  74 SE9       30.32F WCI  14

$$




USA.gov is the U.S. government's official web portal to all federal, state and local government web resources and services.